Change the Weather History Date:

Tuesday, September 25, 2012

  Actual Average Record
Temperature  
Mean Temperature 74 °F -  
Max Temperature 83 °F 84 °F 92 °F (1961)
Min Temperature 64 °F 68 °F 49 °F (1983)
Cooling Degree Days 8    
Growing Degree Days 24 (Base 50)    
Moisture  
Dew Point 59 °F    
Average Humidity 59    
Maximum Humidity 73    
Minimum Humidity 48    
Precipitation  
Precipitation 0.00 in - - ()
Sea Level Pressure  
Sea Level Pressure 30.11 in    
Wind  
Wind Speed 6 mph (East)    
Max Wind Speed 12 mph    
Max Gust Speed -    
Visibility 10 miles    
Events      
Averages and records for this station are not official NWS values.
T = Trace of Precipitation, MM = Missing Value Source: NWS Daily Summary

Daily Weather History Graph

Daily Weather History Graph

Search for Another Location

Airport or City:

Trip Planner

Search our weather history database for the weather conditions in past years. The results will help you decide how hot, cold, wet, or windy it might be!

Date:

Astronomy

Sep. 25, 2012 Rise Set
Actual Time 6:46 AM CDT 6:47 PM CDT
Civil Twilight 6:22 AM CDT 7:11 PM CDT
Nautical Twilight 5:54 AM CDT 7:39 PM CDT
Astronomical Twilight 5:26 AM CDT 8:07 PM CDT
Moon 3:58 PM CDT (9/25) 2:24 AM CDT (9/25)
Length of Visible Light 12h 49m
Length of Day
12h 01m
Waxing Gibbous, 80% of the Moon is Illuminated
Sep 25
Waxing Gibbous
Sep 29
Full
Oct 8
Last Quarter
Oct 15
New
Oct 21
First Quarter

Hourly Weather History & Observations

Time (CDT) Temp. Heat Index Dew Point Humidity Pressure Visibility Wind Dir Wind Speed Gust Speed Precip Events Conditions
12:55 AM 70.3 °F - 56.1 °F 61% 30.12 in 10.0 mi East 4.6 mph - N/A   Clear
1:55 AM 70.7 °F - 56.1 °F 60% 30.12 in 10.0 mi East 5.8 mph - N/A   Clear
2:55 AM 67.6 °F - 57.7 °F 71% 30.10 in 10.0 mi ENE 4.6 mph - N/A   Clear
3:55 AM 67.5 °F - 56.7 °F 68% 30.09 in 10.0 mi ENE 6.9 mph - N/A   Clear
4:55 AM 66.6 °F - 55.2 °F 67% 30.10 in 10.0 mi ENE 5.8 mph - N/A   Clear
5:55 AM 65.1 °F - 54.9 °F 69% 30.11 in 10.0 mi ENE 5.8 mph - N/A   Clear
6:55 AM 64.6 °F - 54.5 °F 70% 30.11 in 10.0 mi ENE 4.6 mph - N/A   Clear
7:55 AM 68.0 °F - 55.2 °F 64% 30.13 in 10.0 mi NE 4.6 mph - N/A   Clear
8:55 AM 72.5 °F - 55.0 °F 54% 30.14 in 10.0 mi ENE 6.9 mph - N/A   Clear
9:55 AM 76.5 °F - 57.6 °F 52% 30.14 in 10.0 mi Variable 4.6 mph - N/A   Clear
10:55 AM 80.2 °F 81.1 °F 60.8 °F 51% 30.14 in 10.0 mi SE 4.6 mph - N/A   Clear
11:55 AM 81.5 °F 82.0 °F 60.1 °F 48% 30.14 in 10.0 mi Calm Calm - N/A   Clear
12:55 PM 83.1 °F 83.9 °F 62.2 °F 49% 30.13 in 10.0 mi SE 8.1 mph - N/A   Clear
2:55 PM 83.1 °F 83.9 °F 62.2 °F 49% 30.09 in 10.0 mi SSE 8.1 mph - N/A   Clear
3:55 PM 82.8 °F 83.3 °F 61.3 °F 48% 30.08 in 10.0 mi SE 9.2 mph - N/A   Clear
4:55 PM 81.1 °F 82.1 °F 62.2 °F 52% 30.07 in 10.0 mi SE 11.5 mph - N/A   Clear
5:55 PM 79.9 °F - 60.6 °F 52% 30.09 in 10.0 mi SSE 9.2 mph - N/A   Clear
6:55 PM 78.1 °F - 60.3 °F 54% 30.09 in 10.0 mi SE 8.1 mph - N/A   Clear
7:55 PM 76.8 °F - 59.4 °F 55% 30.10 in 10.0 mi ESE 6.9 mph - N/A   Clear
8:55 PM 75.6 °F - 58.1 °F 55% 30.11 in 10.0 mi ESE 5.8 mph - N/A   Clear
9:55 PM 73.0 °F - 61.2 °F 66% 30.12 in 10.0 mi East 3.5 mph - N/A   Clear
10:55 PM 70.3 °F - 61.2 °F 73% 30.12 in 10.0 mi East 4.6 mph - N/A   Clear
11:55 PM 69.8 °F - 60.6 °F 73% 30.10 in 10.0 mi ENE 3.5 mph - N/A   Clear